Time,TemperatureF,DewpointF,PressureIn,WindDirection,WindDirectionDegrees,WindSpeedMPH,WindSpeedGustMPH,Humidity,HourlyPrecipIn,Conditions,Clouds,dailyrainin,SoftwareType,DateUTC
2013-09-03 00:04:00,72.3,70.2,29.93,West,276,0.0,1.0,93,0.00,,,0.00,meteohub,2013-09-03 05:04:00,
2013-09-03 00:09:00,72.3,70.2,29.93,West,276,0.0,1.0,93,0.00,,,0.00,meteohub,2013-09-03 05:09:00,
2013-09-03 00:14:00,72.5,70.3,29.93,West,276,0.0,1.0,93,0.00,,,0.00,meteohub,2013-09-03 05:14:00,
2013-09-03 00:19:00,72.5,70.3,29.93,West,276,0.0,1.0,93,0.00,,,0.00,meteohub,2013-09-03 05:19:00,
2013-09-03 00:25:00,72.3,70.2,29.93,West,276,0.0,1.0,93,0.00,,,0.00,meteohub,2013-09-03 05:25:00,
2013-09-03 00:30:00,72.3,70.2,29.93,West,276,0.0,1.0,93,0.00,,,0.00,meteohub,2013-09-03 05:30:00,
2013-09-03 00:35:00,72.3,70.2,29.93,West,276,0.0,1.0,93,0.00,,,0.00,meteohub,2013-09-03 05:35:00,
2013-09-03 00:40:00,72.3,70.2,29.93,West,276,0.0,1.0,93,0.00,,,0.00,meteohub,2013-09-03 05:40:00,
2013-09-03 00:45:00,72.3,70.2,29.93,West,276,0.0,1.0,93,0.00,,,0.00,meteohub,2013-09-03 05:45:00,
2013-09-03 00:50:00,72.3,70.2,29.93,West,276,0.0,1.0,93,0.00,,,0.00,meteohub,2013-09-03 05:50:00,
2013-09-03 00:55:00,72.3,70.5,29.93,West,276,0.0,0.0,94,0.00,,,0.00,meteohub,2013-09-03 05:55:00,
2013-09-03 01:00:00,72.3,70.5,29.93,West,276,0.0,0.0,94,0.00,,,0.00,meteohub,2013-09-03 06:00:00,
2013-09-03 01:05:00,72.3,70.5,29.93,West,276,0.0,0.0,94,0.00,,,0.00,meteohub,2013-09-03 06:05:00,
2013-09-03 01:11:00,72.1,70.3,29.93,West,276,0.0,0.0,94,0.00,,,0.00,meteohub,2013-09-03 06:11:00,
2013-09-03 01:16:00,72.1,70.3,29.93,West,276,0.0,0.0,94,0.00,,,0.00,meteohub,2013-09-03 06:16:00,
2013-09-03 01:21:00,72.1,70.3,29.92,West,276,0.0,0.0,94,0.00,,,0.00,meteohub,2013-09-03 06:21:00,
2013-09-03 01:26:00,72.0,70.2,29.92,West,276,0.0,0.0,94,0.00,,,0.00,meteohub,2013-09-03 06:26:00,
2013-09-03 01:31:00,71.8,70.0,29.92,West,276,0.0,0.0,94,0.00,,,0.00,meteohub,2013-09-03 06:31:00,
2013-09-03 01:36:00,71.8,70.0,29.93,West,276,0.0,0.0,94,0.00,,,0.00,meteohub,2013-09-03 06:36:00,
2013-09-03 01:41:00,71.6,69.8,29.92,West,276,1.0,0.0,94,0.00,,,0.00,meteohub,2013-09-03 06:41:00,
2013-09-03 01:46:00,71.4,69.6,29.92,West,276,0.0,2.0,94,0.00,,,0.00,meteohub,2013-09-03 06:46:00,
2013-09-03 01:51:00,71.4,69.6,29.92,West,276,0.0,2.0,94,0.00,,,0.00,meteohub,2013-09-03 06:51:00,
2013-09-03 01:57:00,71.2,69.4,29.91,West,276,0.0,2.0,94,0.00,,,0.00,meteohub,2013-09-03 06:57:00,
2013-09-03 02:02:00,71.2,69.8,29.92,West,276,0.0,2.0,95,0.00,,,0.00,meteohub,2013-09-03 07:02:00,
2013-09-03 02:07:00,71.2,69.8,29.91,West,276,0.0,2.0,95,0.00,,,0.00,meteohub,2013-09-03 07:07:00,
2013-09-03 02:12:00,71.2,69.8,29.91,West,276,0.0,2.0,95,0.00,,,0.00,meteohub,2013-09-03 07:12:00,
2013-09-03 02:17:00,71.2,69.8,29.92,West,276,0.0,2.0,95,0.00,,,0.00,meteohub,2013-09-03 07:17:00,
2013-09-03 02:22:00,71.2,69.8,29.92,West,276,0.0,2.0,95,0.00,,,0.00,meteohub,2013-09-03 07:22:00,
2013-09-03 02:27:00,71.2,69.8,29.92,West,276,0.0,2.0,95,0.00,,,0.00,meteohub,2013-09-03 07:27:00,
2013-09-03 02:32:00,71.2,69.8,29.92,West,276,0.0,2.0,95,0.00,,,0.00,meteohub,2013-09-03 07:32:00,
2013-09-03 02:37:00,71.2,69.8,29.92,West,276,0.0,1.0,95,0.00,,,0.00,meteohub,2013-09-03 07:37:00,
2013-09-03 02:42:00,71.2,69.8,29.92,West,276,0.0,2.0,95,0.00,,,0.00,meteohub,2013-09-03 07:42:00,
2013-09-03 02:47:00,71.2,69.8,29.93,West,276,0.0,2.0,95,0.00,,,0.00,meteohub,2013-09-03 07:47:00,
2013-09-03 02:52:00,71.2,69.8,29.94,West,276,0.0,1.0,95,0.00,,,0.00,meteohub,2013-09-03 07:52:00,
2013-09-03 02:57:00,71.2,69.8,29.94,West,276,0.0,1.0,95,0.00,,,0.00,meteohub,2013-09-03 07:57:00,
2013-09-03 03:02:00,71.2,69.8,29.94,West,276,0.0,0.0,95,0.00,,,0.00,meteohub,2013-09-03 08:02:00,
2013-09-03 03:08:00,71.2,69.8,29.93,West,276,0.0,1.0,95,0.00,,,0.00,meteohub,2013-09-03 08:08:00,
2013-09-03 03:13:00,71.2,69.8,29.93,West,276,0.0,1.0,95,0.00,,,0.00,meteohub,2013-09-03 08:13:00,
2013-09-03 03:18:00,71.2,69.8,29.93,West,276,0.0,1.0,95,0.00,,,0.00,meteohub,2013-09-03 08:18:00,
2013-09-03 03:23:00,71.2,69.8,29.93,West,276,0.0,0.0,95,0.00,,,0.00,meteohub,2013-09-03 08:23:00,
2013-09-03 03:28:00,71.2,69.8,29.93,West,276,0.0,0.0,95,0.00,,,0.00,meteohub,2013-09-03 08:28:00,
2013-09-03 03:33:00,71.2,69.8,29.92,West,276,0.0,0.0,95,0.00,,,0.00,meteohub,2013-09-03 08:33:00,
2013-09-03 03:38:00,71.2,69.8,29.93,West,276,0.0,0.0,95,0.00,,,0.00,meteohub,2013-09-03 08:38:00,
2013-09-03 03:43:00,71.2,69.8,29.93,West,276,0.0,0.0,95,0.00,,,0.00,meteohub,2013-09-03 08:43:00,
2013-09-03 03:49:00,71.2,69.8,29.93,West,276,0.0,0.0,95,0.00,,,0.00,meteohub,2013-09-03 08:49:00,
2013-09-03 03:54:00,71.2,69.8,29.93,West,276,0.0,0.0,95,0.00,,,0.00,meteohub,2013-09-03 08:54:00,
2013-09-03 03:59:00,71.2,69.8,29.93,West,276,0.0,0.0,95,0.00,,,0.00,meteohub,2013-09-03 08:59:00,
2013-09-03 04:04:00,71.2,69.8,29.93,West,276,0.0,0.0,95,0.00,,,0.00,meteohub,2013-09-03 09:04:00,
2013-09-03 04:09:00,71.2,69.8,29.93,West,276,0.0,0.0,95,0.00,,,0.00,meteohub,2013-09-03 09:09:00,
2013-09-03 04:14:00,71.2,69.8,29.93,West,276,0.0,0.0,95,0.00,,,0.00,meteohub,2013-09-03 09:14:00,
2013-09-03 04:19:00,71.2,69.8,29.92,West,276,0.0,0.0,95,0.00,,,0.00,meteohub,2013-09-03 09:19:00,
2013-09-03 04:24:00,71.2,69.8,29.92,West,276,0.0,0.0,95,0.00,,,0.00,meteohub,2013-09-03 09:24:00,
2013-09-03 04:29:00,71.2,69.8,29.93,West,276,0.0,0.0,95,0.00,,,0.00,meteohub,2013-09-03 09:29:00,
2013-09-03 04:34:00,71.2,69.8,29.93,West,276,0.0,0.0,95,0.00,,,0.00,meteohub,2013-09-03 09:34:00,
2013-09-03 04:40:00,71.2,69.8,29.92,West,276,0.0,0.0,95,0.00,,,0.00,meteohub,2013-09-03 09:40:00,
2013-09-03 04:45:00,71.2,69.8,29.93,West,276,0.0,0.0,95,0.00,,,0.00,meteohub,2013-09-03 09:45:00,
2013-09-03 04:50:00,71.2,69.8,29.93,West,276,0.0,1.0,95,0.00,,,0.00,meteohub,2013-09-03 09:50:00,
2013-09-03 04:55:00,71.2,69.8,29.93,West,276,0.0,1.0,95,0.00,,,0.00,meteohub,2013-09-03 09:55:00,
2013-09-03 05:00:00,71.2,69.8,29.92,West,276,0.0,1.0,95,0.00,,,0.00,meteohub,2013-09-03 10:00:00,
2013-09-03 05:05:00,71.2,69.8,29.93,West,276,0.0,1.0,95,0.00,,,0.00,meteohub,2013-09-03 10:05:00,
2013-09-03 05:10:00,71.2,69.8,29.93,West,276,0.0,1.0,95,0.00,,,0.00,meteohub,2013-09-03 10:10:00,
2013-09-03 05:15:00,71.2,69.8,29.93,West,276,0.0,1.0,95,0.00,,,0.00,meteohub,2013-09-03 10:15:00,
2013-09-03 05:20:00,71.2,69.8,29.93,SW,224,1.0,1.0,95,0.00,,,0.00,meteohub,2013-09-03 10:20:00,
2013-09-03 05:26:00,71.4,70.0,29.93,SSW,193,0.0,2.0,95,0.00,,,0.00,meteohub,2013-09-03 10:26:00,
2013-09-03 05:31:00,71.2,69.8,29.93,SW,214,1.0,2.0,95,0.00,,,0.00,meteohub,2013-09-03 10:31:00,
2013-09-03 05:36:00,71.2,69.8,29.93,West,264,1.0,2.0,95,0.00,,,0.00,meteohub,2013-09-03 10:36:00,
2013-09-03 05:41:00,71.2,69.8,29.93,West,264,0.0,3.0,95,0.00,,,0.00,meteohub,2013-09-03 10:41:00,
2013-09-03 05:46:00,71.4,70.0,29.93,WSW,243,0.0,3.0,95,0.00,,,0.00,meteohub,2013-09-03 10:46:00,
2013-09-03 05:51:00,71.4,70.0,29.93,WSW,258,2.0,2.0,95,0.00,,,0.00,meteohub,2013-09-03 10:51:00,
2013-09-03 05:56:00,71.8,70.3,29.94,WSW,256,1.0,4.0,95,0.00,,,0.00,meteohub,2013-09-03 10:56:00,
2013-09-03 06:01:00,72.0,70.5,29.94,West,270,1.0,4.0,95,0.00,,,0.00,meteohub,2013-09-03 11:01:00,
2013-09-03 06:07:00,72.0,70.5,29.94,West,271,0.0,4.0,95,0.00,,,0.00,meteohub,2013-09-03 11:07:00,
2013-09-03 06:12:00,72.1,70.7,29.94,West,271,0.0,3.0,95,0.00,,,0.00,meteohub,2013-09-03 11:12:00,
2013-09-03 06:17:00,72.1,70.7,29.95,West,271,0.0,2.0,95,0.00,,,0.00,meteohub,2013-09-03 11:17:00,
2013-09-03 06:22:00,72.1,70.7,29.95,West,271,1.0,2.0,95,0.00,,,0.00,meteohub,2013-09-03 11:22:00,
2013-09-03 06:27:00,72.0,70.5,29.95,West,271,1.0,3.0,95,0.00,,,0.00,meteohub,2013-09-03 11:27:00,
2013-09-03 06:32:00,72.0,70.5,29.95,West,270,1.0,3.0,95,0.00,,,0.00,meteohub,2013-09-03 11:32:00,
2013-09-03 06:37:00,72.0,70.5,29.95,West,271,0.0,3.0,95,0.00,,,0.00,meteohub,2013-09-03 11:37:00,
2013-09-03 06:42:00,72.0,70.5,29.95,West,270,0.0,3.0,95,0.00,,,0.00,meteohub,2013-09-03 11:42:00,
2013-09-03 06:47:00,72.0,70.5,29.95,West,271,0.0,3.0,95,0.00,,,0.00,meteohub,2013-09-03 11:47:00,
2013-09-03 06:52:00,72.1,70.7,29.95,West,271,0.0,2.0,95,0.00,,,0.00,meteohub,2013-09-03 11:52:00,
2013-09-03 06:57:00,72.3,70.9,29.95,West,271,0.0,2.0,95,0.00,,,0.00,meteohub,2013-09-03 11:57:00,
2013-09-03 07:02:00,72.7,71.2,29.95,West,271,0.0,2.0,95,0.00,,,0.00,meteohub,2013-09-03 12:02:00,
2013-09-03 07:07:00,72.9,71.4,29.96,West,270,0.0,1.0,95,0.00,,,0.00,meteohub,2013-09-03 12:07:00,
2013-09-03 07:12:00,73.0,71.6,29.96,West,270,0.0,1.0,95,0.00,,,0.00,meteohub,2013-09-03 12:12:00,
2013-09-03 07:17:00,73.2,71.8,29.96,West,271,0.0,2.0,95,0.00,,,0.00,meteohub,2013-09-03 12:17:00,
2013-09-03 07:22:00,73.6,72.1,29.96,West,271,0.0,2.0,95,0.00,,,0.00,meteohub,2013-09-03 12:22:00,
2013-09-03 07:27:00,73.9,72.5,29.96,WSW,257,0.0,1.0,95,0.00,,,0.00,meteohub,2013-09-03 12:27:00,
2013-09-03 07:32:00,74.3,72.9,29.96,WSW,258,0.0,2.0,95,0.00,,,0.00,meteohub,2013-09-03 12:32:00,
2013-09-03 07:37:00,74.7,72.9,29.96,WSW,258,0.0,2.0,94,0.00,,,0.00,meteohub,2013-09-03 12:37:00,
2013-09-03 07:42:00,74.8,73.0,29.96,WSW,258,0.0,2.0,94,0.00,,,0.00,meteohub,2013-09-03 12:42:00,
2013-09-03 07:47:00,75.2,73.4,29.96,WSW,258,1.0,2.0,94,0.00,,,0.00,meteohub,2013-09-03 12:47:00,
2013-09-03 07:52:00,75.6,73.8,29.96,West,266,2.0,2.0,94,0.00,,,0.00,meteohub,2013-09-03 12:52:00,
2013-09-03 07:57:00,75.9,74.1,29.96,WNW,286,2.0,2.0,94,0.00,,,0.00,meteohub,2013-09-03 12:57:00,
2013-09-03 08:02:00,76.3,74.1,29.96,WNW,291,1.0,4.0,93,0.00,,,0.00,meteohub,2013-09-03 13:02:00,
2013-09-03 08:07:00,76.5,74.3,29.96,WNW,287,1.0,4.0,93,0.00,,,0.00,meteohub,2013-09-03 13:07:00,
2013-09-03 08:12:00,76.6,74.5,29.97,WNW,294,2.0,4.0,93,0.00,,,0.00,meteohub,2013-09-03 13:12:00,
2013-09-03 08:17:00,77.0,74.8,29.97,West,281,1.0,4.0,93,0.00,,,0.00,meteohub,2013-09-03 13:17:00,
2013-09-03 08:22:00,77.4,74.8,29.97,West,276,1.0,4.0,92,0.00,,,0.00,meteohub,2013-09-03 13:22:00,
2013-09-03 08:27:00,77.7,75.2,29.97,West,274,4.0,4.0,92,0.00,,,0.00,meteohub,2013-09-03 13:27:00,
2013-09-03 08:32:00,78.1,75.2,29.97,West,269,2.0,5.0,91,0.00,,,0.00,meteohub,2013-09-03 13:32:00,
2013-09-03 08:37:00,78.4,75.9,29.97,WNW,294,3.0,5.0,92,0.00,,,0.00,meteohub,2013-09-03 13:37:00,
2013-09-03 08:42:00,78.8,75.6,29.96,West,276,3.0,5.0,90,0.00,,,0.00,meteohub,2013-09-03 13:42:00,
2013-09-03 08:47:00,79.0,75.7,29.96,West,281,2.0,5.0,90,0.00,,,0.00,meteohub,2013-09-03 13:47:00,
2013-09-03 08:52:00,79.2,75.9,29.96,WSW,257,4.0,6.0,90,0.00,,,0.00,meteohub,2013-09-03 13:52:00,
2013-09-03 08:57:00,79.3,76.1,29.96,WSW,241,1.0,6.0,90,0.00,,,0.00,meteohub,2013-09-03 13:57:00,
2013-09-03 09:02:00,79.5,76.3,29.96,West,277,1.0,6.0,90,0.00,,,0.00,meteohub,2013-09-03 14:02:00,
2013-09-03 09:07:00,79.9,76.3,29.97,West,268,1.0,6.0,89,0.00,,,0.00,meteohub,2013-09-03 14:07:00,
2013-09-03 09:12:00,80.2,76.3,29.97,West,280,1.0,7.0,88,0.00,,,0.00,meteohub,2013-09-03 14:12:00,
2013-09-03 09:17:00,80.8,76.8,29.97,WNW,290,4.0,7.0,88,0.00,,,0.00,meteohub,2013-09-03 14:17:00,
2013-09-03 09:22:00,81.1,77.5,29.97,West,276,2.0,6.0,89,0.00,,,0.00,meteohub,2013-09-03 14:22:00,
2013-09-03 09:27:00,82.0,78.1,29.97,WSW,249,5.0,6.0,88,0.00,,,0.00,meteohub,2013-09-03 14:27:00,
2013-09-03 09:32:00,82.2,77.5,29.98,West,265,3.0,6.0,86,0.00,,,0.00,meteohub,2013-09-03 14:32:00,
2013-09-03 09:37:00,82.2,77.5,29.98,WNW,282,7.0,7.0,86,0.00,,,0.00,meteohub,2013-09-03 14:37:00,
2013-09-03 09:42:00,82.6,77.2,29.98,West,279,5.0,10.0,84,0.00,,,0.00,meteohub,2013-09-03 14:42:00,
2013-09-03 09:48:00,82.9,77.9,29.97,NNW,339,0.0,10.0,85,0.00,,,0.00,meteohub,2013-09-03 14:48:00,
2013-09-03 09:53:00,82.9,77.9,29.98,West,268,3.0,10.0,85,0.00,,,0.00,meteohub,2013-09-03 14:53:00,
2013-09-03 09:58:00,83.5,78.4,29.98,NW,326,0.0,9.0,85,0.00,,,0.00,meteohub,2013-09-03 14:58:00,
2013-09-03 10:03:00,83.8,78.1,29.98,West,263,3.0,8.0,83,0.00,,,0.00,meteohub,2013-09-03 15:03:00,
2013-09-03 10:08:00,84.0,77.5,29.98,West,262,1.0,8.0,81,0.00,,,0.00,meteohub,2013-09-03 15:08:00,
2013-09-03 10:13:00,84.0,77.5,29.98,West,272,3.0,5.0,81,0.00,,,0.00,meteohub,2013-09-03 15:13:00,
2013-09-03 10:18:00,84.4,77.5,29.98,West,281,0.0,5.0,80,0.00,,,0.00,meteohub,2013-09-03 15:18:00,
2013-09-03 10:23:00,84.4,77.2,29.98,West,266,2.0,6.0,79,0.00,,,0.00,meteohub,2013-09-03 15:23:00,
2013-09-03 10:28:00,84.6,77.7,29.98,West,265,3.0,7.0,80,0.00,,,0.00,meteohub,2013-09-03 15:28:00,
2013-09-03 10:34:00,84.7,77.9,29.98,WNW,301,0.0,7.0,80,0.00,,,0.00,meteohub,2013-09-03 15:34:00,
2013-09-03 10:39:00,85.3,77.7,29.98,WSW,244,3.0,7.0,78,0.00,,,0.00,meteohub,2013-09-03 15:39:00,
2013-09-03 10:44:00,85.5,77.7,29.98,WSW,245,0.0,6.0,78,0.00,,,0.00,meteohub,2013-09-03 15:44:00,
2013-09-03 10:49:00,85.6,77.2,29.98,West,264,0.0,6.0,76,0.00,,,0.00,meteohub,2013-09-03 15:49:00,
2013-09-03 10:54:00,85.8,77.4,29.98,WNW,290,1.0,5.0,76,0.00,,,0.00,meteohub,2013-09-03 15:54:00,
2013-09-03 10:59:00,86.0,77.5,29.98,WNW,293,0.0,4.0,76,0.00,,,0.00,meteohub,2013-09-03 15:59:00,
2013-09-03 11:04:00,86.4,77.9,29.98,West,281,2.0,4.0,76,0.00,,,0.00,meteohub,2013-09-03 16:04:00,
2013-09-03 11:09:00,86.4,77.5,29.98,WNW,283,0.0,4.0,75,0.00,,,0.00,meteohub,2013-09-03 16:09:00,
2013-09-03 11:15:00,86.4,77.5,29.98,WNW,283,0.0,4.0,75,0.00,,,0.00,meteohub,2013-09-03 16:15:00,
2013-09-03 11:20:00,86.2,77.4,29.98,West,276,1.0,4.0,75,0.00,,,0.00,meteohub,2013-09-03 16:20:00,
2013-09-03 11:25:00,85.8,77.7,29.98,West,277,1.0,5.0,77,0.00,,,0.00,meteohub,2013-09-03 16:25:00,
2013-09-03 11:30:00,85.8,77.7,29.97,West,278,0.0,5.0,77,0.00,,,0.00,meteohub,2013-09-03 16:30:00,
2013-09-03 11:35:00,86.2,79.0,29.97,West,278,0.0,4.0,79,0.00,,,0.00,meteohub,2013-09-03 16:35:00,
2013-09-03 11:41:00,86.5,78.4,29.97,NNW,332,1.0,4.0,77,0.00,,,0.00,meteohub,2013-09-03 16:41:00,
2013-09-03 11:46:00,86.5,78.4,29.97,NNW,332,0.0,4.0,77,0.00,,,0.00,meteohub,2013-09-03 16:46:00,
2013-09-03 11:51:00,86.5,77.7,29.96,West,278,1.0,4.0,75,0.00,,,0.00,meteohub,2013-09-03 16:51:00,
2013-09-03 11:56:00,85.1,74.7,29.96,West,276,9.0,9.0,71,0.00,,,0.00,meteohub,2013-09-03 16:56:00,
2013-09-03 12:01:00,81.1,72.1,29.96,WNW,285,7.0,12.0,74,0.00,,,0.00,meteohub,2013-09-03 17:01:00,
2013-09-03 12:06:00,78.1,72.1,29.97,WNW,289,2.0,12.0,82,0.04,,,0.04,meteohub,2013-09-03 17:06:00,
2013-09-03 12:11:00,76.3,71.1,29.96,WSW,258,1.0,12.0,84,0.05,,,0.05,meteohub,2013-09-03 17:11:00,
2013-09-03 12:16:00,75.4,71.6,29.95,WSW,258,1.0,10.0,88,0.07,,,0.07,meteohub,2013-09-03 17:16:00,
2013-09-03 12:21:00,75.6,73.0,29.96,SSW,199,0.0,7.0,92,0.07,,,0.07,meteohub,2013-09-03 17:21:00,
2013-09-03 12:27:00,76.1,73.6,29.96,SE,127,1.0,7.0,92,0.07,,,0.07,meteohub,2013-09-03 17:27:00,
2013-09-03 12:32:00,76.5,74.3,29.95,SE,127,0.0,7.0,93,0.07,,,0.07,meteohub,2013-09-03 17:32:00,
2013-09-03 12:37:00,76.8,74.7,29.95,SW,227,2.0,3.0,93,0.07,,,0.07,meteohub,2013-09-03 17:37:00,
2013-09-03 12:42:00,77.2,75.4,29.95,WSW,242,0.0,2.0,94,0.07,,,0.07,meteohub,2013-09-03 17:42:00,
2013-09-03 12:47:00,77.4,75.2,29.96,SW,218,1.0,2.0,93,0.07,,,0.07,meteohub,2013-09-03 17:47:00,
2013-09-03 12:52:00,77.4,75.2,29.96,NE,56,2.0,3.0,93,0.07,,,0.07,meteohub,2013-09-03 17:52:00,
2013-09-03 12:57:00,77.5,75.0,29.96,East,90,2.0,3.0,92,0.07,,,0.07,meteohub,2013-09-03 17:57:00,
2013-09-03 13:02:00,77.7,74.8,29.96,East,99,1.0,3.0,91,0.06,,,0.07,meteohub,2013-09-03 18:02:00,
2013-09-03 13:07:00,77.7,74.5,29.97,NNE,16,0.0,3.0,90,0.02,,,0.07,meteohub,2013-09-03 18:07:00,
2013-09-03 13:12:00,77.7,74.8,29.97,ESE,108,2.0,3.0,91,0.00,,,0.07,meteohub,2013-09-03 18:12:00,
2013-09-03 13:17:00,77.9,75.0,29.96,ESE,108,1.0,2.0,91,0.00,,,0.07,meteohub,2013-09-03 18:17:00,
2013-09-03 13:22:00,77.7,74.5,29.95,ENE,74,1.0,3.0,90,0.00,,,0.07,meteohub,2013-09-03 18:22:00,
2013-09-03 13:28:00,77.5,74.3,29.95,ENE,74,0.0,3.0,90,0.00,,,0.07,meteohub,2013-09-03 18:28:00,
2013-09-03 13:33:00,77.4,74.8,29.95,ENE,74,0.0,3.0,92,0.00,,,0.07,meteohub,2013-09-03 18:33:00,
2013-09-03 13:38:00,77.4,75.2,29.96,ENE,74,0.0,2.0,93,0.01,,,0.08,meteohub,2013-09-03 18:38:00,
2013-09-03 13:43:00,77.2,74.3,29.96,WNW,301,4.0,4.0,91,0.01,,,0.08,meteohub,2013-09-03 18:43:00,
2013-09-03 13:48:00,76.8,74.3,29.96,East,79,2.0,8.0,92,0.02,,,0.09,meteohub,2013-09-03 18:48:00,
2013-09-03 13:53:00,76.6,74.5,29.96,ESE,123,1.0,8.0,93,0.02,,,0.09,meteohub,2013-09-03 18:53:00,
2013-09-03 13:58:00,76.6,74.5,29.98,ESE,118,1.0,8.0,93,0.02,,,0.09,meteohub,2013-09-03 18:58:00,
2013-09-03 14:03:00,76.6,74.5,29.97,SE,131,0.0,5.0,93,0.03,,,0.10,meteohub,2013-09-03 19:03:00,
2013-09-03 14:08:00,76.6,74.8,29.96,SE,131,0.0,3.0,94,0.04,,,0.11,meteohub,2013-09-03 19:08:00,
2013-09-03 14:14:00,76.5,74.7,29.96,SE,131,1.0,2.0,94,0.05,,,0.12,meteohub,2013-09-03 19:14:00,
2013-09-03 14:19:00,76.5,74.7,29.97,SW,216,5.0,5.0,94,0.06,,,0.13,meteohub,2013-09-03 19:19:00,
2013-09-03 14:24:00,76.3,74.5,29.98,SSW,204,3.0,3.0,94,0.07,,,0.14,meteohub,2013-09-03 19:24:00,
2013-09-03 14:29:00,75.9,73.8,29.98,SW,224,3.0,10.0,93,0.07,,,0.14,meteohub,2013-09-03 19:29:00,
2013-09-03 14:34:00,75.6,72.7,29.97,WSW,243,3.0,10.0,91,0.06,,,0.14,meteohub,2013-09-03 19:34:00,
2013-09-03 14:39:00,75.0,72.5,29.97,SW,215,2.0,10.0,92,0.07,,,0.15,meteohub,2013-09-03 19:39:00,
2013-09-03 14:44:00,74.7,71.8,29.96,West,278,2.0,10.0,91,0.06,,,0.15,meteohub,2013-09-03 19:44:00,
2013-09-03 14:49:00,74.1,71.2,29.95,WSW,251,0.0,8.0,91,0.06,,,0.15,meteohub,2013-09-03 19:49:00,
2013-09-03 14:55:00,73.9,71.1,29.94,WSW,243,2.0,8.0,91,0.06,,,0.15,meteohub,2013-09-03 19:55:00,
2013-09-03 15:00:00,73.8,70.9,29.94,WSW,243,1.0,5.0,91,0.04,,,0.15,meteohub,2013-09-03 20:00:00,
2013-09-03 15:05:00,73.8,71.2,29.93,WSW,243,0.0,3.0,92,0.04,,,0.15,meteohub,2013-09-03 20:05:00,
2013-09-03 15:10:00,73.6,71.4,29.93,WSW,243,1.0,3.0,93,0.02,,,0.15,meteohub,2013-09-03 20:10:00,
2013-09-03 15:15:00,73.6,71.4,29.93,WSW,243,0.0,2.0,93,0.02,,,0.15,meteohub,2013-09-03 20:15:00,
2013-09-03 15:20:00,73.6,71.4,29.93,SW,228,1.0,2.0,93,0.01,,,0.15,meteohub,2013-09-03 20:20:00,
2013-09-03 15:25:00,73.8,71.6,29.94,South,189,0.0,3.0,93,0.01,,,0.15,meteohub,2013-09-03 20:25:00,
2013-09-03 15:30:00,73.8,71.6,29.95,WSW,245,0.0,4.0,93,0.01,,,0.15,meteohub,2013-09-03 20:30:00,
2013-09-03 15:36:00,73.8,71.6,29.95,WSW,244,4.0,4.0,93,0.00,,,0.15,meteohub,2013-09-03 20:36:00,
2013-09-03 15:41:00,73.8,71.6,29.95,SSW,212,1.0,4.0,93,0.00,,,0.15,meteohub,2013-09-03 20:41:00,
2013-09-03 15:46:00,73.8,71.2,29.95,SW,233,1.0,5.0,92,0.00,,,0.15,meteohub,2013-09-03 20:46:00,
2013-09-03 15:51:00,73.9,71.8,29.95,SW,233,0.0,5.0,93,0.00,,,0.15,meteohub,2013-09-03 20:51:00,
2013-09-03 15:56:00,73.9,71.4,29.94,SSW,209,1.0,5.0,92,0.00,,,0.15,meteohub,2013-09-03 20:56:00,
2013-09-03 16:01:00,74.1,71.6,29.94,SSW,212,1.0,4.0,92,0.00,,,0.15,meteohub,2013-09-03 21:01:00,
2013-09-03 16:06:00,74.5,72.3,29.94,SSE,152,0.0,4.0,93,0.00,,,0.15,meteohub,2013-09-03 21:06:00,
2013-09-03 16:11:00,74.7,72.1,29.94,East,98,1.0,4.0,92,0.00,,,0.15,meteohub,2013-09-03 21:11:00,
2013-09-03 16:17:00,74.8,72.0,29.94,SSW,210,0.0,5.0,91,0.00,,,0.15,meteohub,2013-09-03 21:17:00,
2013-09-03 16:22:00,75.0,72.1,29.94,South,181,0.0,5.0,91,0.00,,,0.15,meteohub,2013-09-03 21:22:00,
2013-09-03 16:27:00,75.2,71.8,29.94,SSW,202,0.0,3.0,89,0.00,,,0.15,meteohub,2013-09-03 21:27:00,
2013-09-03 16:32:00,75.6,72.5,29.93,SSW,201,1.0,3.0,90,0.00,,,0.15,meteohub,2013-09-03 21:32:00,
2013-09-03 16:37:00,75.7,72.7,29.93,SW,225,0.0,3.0,90,0.00,,,0.15,meteohub,2013-09-03 21:37:00,
2013-09-03 16:43:00,75.9,71.8,29.93,SSW,200,0.0,3.0,87,0.00,,,0.15,meteohub,2013-09-03 21:43:00,
2013-09-03 16:48:00,76.1,71.6,29.92,SSW,206,0.0,3.0,86,0.00,,,0.15,meteohub,2013-09-03 21:48:00,
2013-09-03 16:53:00,76.3,72.5,29.92,West,259,3.0,3.0,88,0.00,,,0.15,meteohub,2013-09-03 21:53:00,
2013-09-03 16:58:00,76.3,71.8,29.92,WNW,296,2.0,5.0,86,0.00,,,0.15,meteohub,2013-09-03 21:58:00,
2013-09-03 17:03:00,76.3,72.1,29.91,West,264,0.0,5.0,87,0.00,,,0.15,meteohub,2013-09-03 22:03:00,
2013-09-03 17:08:00,76.5,72.3,29.91,SW,235,3.0,5.0,87,0.00,,,0.15,meteohub,2013-09-03 22:08:00,
2013-09-03 17:13:00,76.6,72.1,29.90,SW,233,2.0,5.0,86,0.00,,,0.15,meteohub,2013-09-03 22:13:00,
2013-09-03 17:18:00,76.6,72.5,29.90,West,281,4.0,5.0,87,0.00,,,0.15,meteohub,2013-09-03 22:18:00,
2013-09-03 17:24:00,76.8,72.3,29.91,WSW,239,3.0,5.0,86,0.00,,,0.15,meteohub,2013-09-03 22:24:00,
2013-09-03 17:29:00,76.8,72.0,29.90,West,266,2.0,5.0,85,0.00,,,0.15,meteohub,2013-09-03 22:29:00,
2013-09-03 17:34:00,76.8,71.6,29.90,West,261,3.0,5.0,84,0.00,,,0.15,meteohub,2013-09-03 22:34:00,
2013-09-03 17:39:00,76.5,71.6,29.91,WNW,297,2.0,7.0,85,0.00,,,0.15,meteohub,2013-09-03 22:39:00,
2013-09-03 17:44:00,76.5,72.0,29.91,West,272,4.0,7.0,86,0.00,,,0.15,meteohub,2013-09-03 22:44:00,
2013-09-03 17:49:00,76.5,72.3,29.91,West,272,0.0,7.0,87,0.00,,,0.15,meteohub,2013-09-03 22:49:00,
2013-09-03 17:54:00,76.5,72.0,29.91,West,267,3.0,6.0,86,0.00,,,0.15,meteohub,2013-09-03 22:54:00,
2013-09-03 18:00:00,76.6,72.1,29.91,West,280,3.0,6.0,86,0.00,,,0.15,meteohub,2013-09-03 23:00:00,
2013-09-03 18:05:00,76.5,72.0,29.92,WNW,295,5.0,9.0,86,0.00,,,0.15,meteohub,2013-09-03 23:05:00,
2013-09-03 18:10:00,76.1,72.0,29.92,West,272,5.0,9.0,87,0.00,,,0.15,meteohub,2013-09-03 23:10:00,
2013-09-03 18:15:00,75.9,71.8,29.92,West,281,3.0,9.0,87,0.00,,,0.15,meteohub,2013-09-03 23:15:00,
2013-09-03 18:20:00,75.9,71.8,29.93,WNW,294,0.0,6.0,87,0.00,,,0.15,meteohub,2013-09-03 23:20:00,
2013-09-03 18:25:00,75.7,72.0,29.94,WNW,286,0.0,6.0,88,0.00,,,0.15,meteohub,2013-09-03 23:25:00,
2013-09-03 18:30:00,75.7,72.0,29.93,West,278,2.0,5.0,88,0.00,,,0.15,meteohub,2013-09-03 23:30:00,
2013-09-03 18:35:00,75.6,71.8,29.93,West,278,1.0,5.0,88,0.00,,,0.15,meteohub,2013-09-03 23:35:00,
2013-09-03 18:41:00,75.6,72.1,29.94,West,278,0.0,4.0,89,0.00,,,0.15,meteohub,2013-09-03 23:41:00,
2013-09-03 18:46:00,75.6,72.1,29.94,West,278,0.0,4.0,89,0.00,,,0.15,meteohub,2013-09-03 23:46:00,
2013-09-03 18:51:00,75.4,72.0,29.94,West,278,0.0,2.0,89,0.00,,,0.15,meteohub,2013-09-03 23:51:00,
2013-09-03 18:56:00,75.4,72.3,29.94,West,278,0.0,1.0,90,0.00,,,0.15,meteohub,2013-09-03 23:56:00,
2013-09-03 19:01:00,75.0,72.0,29.95,West,278,0.0,1.0,90,0.00,,,0.15,meteohub,2013-09-04 00:01:00,
2013-09-03 19:06:00,75.0,72.0,29.95,West,278,0.0,1.0,90,0.00,,,0.00,meteohub,2013-09-04 00:06:00,
2013-09-03 19:11:00,75.0,72.0,29.95,West,278,0.0,1.0,90,0.00,,,0.00,meteohub,2013-09-04 00:11:00,
2013-09-03 19:16:00,74.8,72.0,29.98,ENE,72,2.0,2.0,91,0.00,,,0.00,meteohub,2013-09-04 00:16:00,
2013-09-03 19:22:00,74.7,71.8,29.99,East,101,2.0,3.0,91,0.00,,,0.00,meteohub,2013-09-04 00:22:00,
2013-09-03 19:27:00,74.8,72.0,29.98,ESE,114,0.0,6.0,91,0.00,,,0.00,meteohub,2013-09-04 00:27:00,
2013-09-03 19:32:00,74.8,72.0,29.97,ESE,114,0.0,6.0,91,0.00,,,0.00,meteohub,2013-09-04 00:32:00,
2013-09-03 19:37:00,74.7,71.8,29.97,SSW,197,0.0,6.0,91,0.00,,,0.00,meteohub,2013-09-04 00:37:00,
2013-09-03 19:42:00,74.7,71.6,29.97,SSW,197,0.0,2.0,90,0.00,,,0.00,meteohub,2013-09-04 00:42:00,
2013-09-03 19:47:00,74.5,71.4,29.96,SW,216,2.0,2.0,90,0.00,,,0.00,meteohub,2013-09-04 00:47:00,
2013-09-03 19:52:00,74.5,71.4,29.96,SSW,203,0.0,2.0,90,0.00,,,0.00,meteohub,2013-09-04 00:52:00,
2013-09-03 19:57:00,74.5,71.4,29.96,SW,217,0.0,2.0,90,0.00,,,0.00,meteohub,2013-09-04 00:57:00,
2013-09-03 20:02:00,74.1,71.2,29.96,West,267,1.0,5.0,91,0.00,,,0.00,meteohub,2013-09-04 01:02:00,
2013-09-03 20:07:00,74.1,71.2,29.97,WSW,250,1.0,5.0,91,0.00,,,0.00,meteohub,2013-09-04 01:07:00,
2013-09-03 20:12:00,74.1,71.2,29.97,WSW,250,0.0,5.0,91,0.00,,,0.00,meteohub,2013-09-04 01:12:00,
2013-09-03 20:17:00,73.9,71.1,29.97,WSW,250,0.0,4.0,91,0.00,,,0.00,meteohub,2013-09-04 01:17:00,
2013-09-03 20:22:00,73.9,71.4,29.97,WSW,250,0.0,2.0,92,0.00,,,0.00,meteohub,2013-09-04 01:22:00,
2013-09-03 20:27:00,73.8,71.2,29.97,ESE,111,0.0,2.0,92,0.00,,,0.00,meteohub,2013-09-04 01:27:00,
2013-09-03 20:32:00,73.8,71.2,29.97,ESE,111,0.0,2.0,92,0.00,,,0.00,meteohub,2013-09-04 01:32:00,
2013-09-03 20:37:00,73.8,71.2,29.97,ESE,111,0.0,2.0,92,0.00,,,0.00,meteohub,2013-09-04 01:37:00,
2013-09-03 20:42:00,73.6,71.1,29.97,ESE,111,0.0,2.0,92,0.00,,,0.00,meteohub,2013-09-04 01:42:00,
2013-09-03 20:47:00,73.6,71.1,29.97,ESE,111,0.0,2.0,92,0.00,,,0.00,meteohub,2013-09-04 01:47:00,
2013-09-03 20:52:00,73.6,71.1,29.97,ESE,111,0.0,1.0,92,0.00,,,0.00,meteohub,2013-09-04 01:52:00,
2013-09-03 20:57:00,73.2,70.7,29.98,ESE,111,0.0,1.0,92,0.00,,,0.00,meteohub,2013-09-04 01:57:00,
2013-09-03 21:02:00,73.2,71.1,29.98,ESE,111,0.0,0.0,93,0.00,,,0.00,meteohub,2013-09-04 02:02:00,
2013-09-03 21:07:00,73.0,70.9,29.99,ESE,111,0.0,0.0,93,0.00,,,0.00,meteohub,2013-09-04 02:07:00,
2013-09-03 21:12:00,73.0,70.9,29.99,ESE,111,0.0,0.0,93,0.00,,,0.00,meteohub,2013-09-04 02:12:00,
2013-09-03 21:18:00,72.9,70.7,29.99,ESE,111,0.0,0.0,93,0.00,,,0.00,meteohub,2013-09-04 02:18:00,
2013-09-03 21:23:00,72.9,70.7,30.00,ESE,112,0.0,0.0,93,0.00,,,0.00,meteohub,2013-09-04 02:23:00,
2013-09-03 21:28:00,72.7,70.9,30.00,ESE,111,0.0,1.0,94,0.00,,,0.00,meteohub,2013-09-04 02:28:00,
2013-09-03 21:33:00,72.3,70.5,30.00,ESE,111,0.0,1.0,94,0.00,,,0.00,meteohub,2013-09-04 02:33:00,
2013-09-03 21:38:00,72.3,70.5,30.00,WSW,243,0.0,1.0,94,0.00,,,0.00,meteohub,2013-09-04 02:38:00,
2013-09-03 21:43:00,72.3,70.5,29.99,WSW,243,0.0,2.0,94,0.00,,,0.00,meteohub,2013-09-04 02:43:00,
2013-09-03 21:48:00,72.3,70.5,30.00,WSW,243,0.0,2.0,94,0.00,,,0.00,meteohub,2013-09-04 02:48:00,
2013-09-03 21:53:00,72.3,70.5,30.00,WSW,243,0.0,2.0,94,0.00,,,0.00,meteohub,2013-09-04 02:53:00,
2013-09-03 21:58:00,72.1,70.3,30.00,WSW,243,0.0,1.0,94,0.00,,,0.00,meteohub,2013-09-04 02:58:00,
2013-09-03 22:04:00,72.1,70.3,30.00,WSW,243,0.0,1.0,94,0.00,,,0.00,meteohub,2013-09-04 03:04:00,
2013-09-03 22:09:00,72.1,70.3,30.00,WSW,243,0.0,0.0,94,0.00,,,0.00,meteohub,2013-09-04 03:09:00,
2013-09-03 22:14:00,72.1,70.3,29.99,WSW,241,0.0,0.0,94,0.00,,,0.00,meteohub,2013-09-04 03:14:00,
2013-09-03 22:19:00,72.1,70.3,29.99,WSW,241,0.0,1.0,94,0.00,,,0.00,meteohub,2013-09-04 03:19:00,
2013-09-03 22:24:00,72.1,70.3,30.00,WSW,241,0.0,1.0,94,0.00,,,0.00,meteohub,2013-09-04 03:24:00,
2013-09-03 22:29:00,72.1,70.3,29.99,WSW,241,0.0,1.0,94,0.00,,,0.00,meteohub,2013-09-04 03:29:00,
2013-09-03 22:34:00,72.1,70.3,29.99,WSW,241,0.0,0.0,94,0.00,,,0.00,meteohub,2013-09-04 03:34:00,
2013-09-03 22:39:00,72.0,70.2,30.00,WSW,241,0.0,0.0,94,0.00,,,0.00,meteohub,2013-09-04 03:39:00,
2013-09-03 22:44:00,72.0,70.2,29.99,WSW,241,0.0,0.0,94,0.00,,,0.00,meteohub,2013-09-04 03:44:00,
2013-09-03 22:50:00,71.8,70.0,29.99,WSW,241,0.0,0.0,94,0.00,,,0.00,meteohub,2013-09-04 03:50:00,
2013-09-03 22:55:00,71.8,70.0,29.99,WSW,241,0.0,0.0,94,0.00,,,0.00,meteohub,2013-09-04 03:55:00,
2013-09-03 23:00:00,71.8,70.3,29.99,WSW,241,0.0,0.0,95,0.00,,,0.00,meteohub,2013-09-04 04:00:00,
2013-09-03 23:01:00,71.8,70.3,29.99,WSW,241,0.0,0.0,95,0.00,,,0.00,meteohub,2013-09-04 04:01:00,
2013-09-03 23:03:00,71.8,70.3,29.99,WSW,241,0.0,0.0,95,0.00,,,0.00,meteohub,2013-09-04 04:03:00,
2013-09-03 23:05:00,71.8,70.3,29.99,WSW,241,0.0,0.0,95,0.00,,,0.00,meteohub,2013-09-04 04:05:00,
2013-09-03 23:07:00,71.8,70.3,29.99,WSW,241,0.0,0.0,95,0.00,,,0.00,meteohub,2013-09-04 04:07:00,
2013-09-03 23:12:00,71.8,70.3,29.99,WSW,241,0.0,0.0,95,0.00,,,0.00,meteohub,2013-09-04 04:12:00,
2013-09-03 23:17:00,71.8,70.3,29.99,WSW,241,0.0,0.0,95,0.00,,,0.00,meteohub,2013-09-04 04:17:00,
2013-09-03 23:22:00,71.8,70.3,29.99,WSW,241,0.0,0.0,95,0.00,,,0.00,meteohub,2013-09-04 04:22:00,
2013-09-03 23:27:00,71.8,70.3,29.99,WSW,241,0.0,1.0,95,0.00,,,0.00,meteohub,2013-09-04 04:27:00,
2013-09-03 23:32:00,71.8,70.0,29.99,WSW,241,0.0,1.0,94,0.00,,,0.00,meteohub,2013-09-04 04:32:00,
2013-09-03 23:37:00,71.6,69.8,29.99,WSW,241,0.0,1.0,94,0.00,,,0.00,meteohub,2013-09-04 04:37:00,
2013-09-03 23:42:00,71.6,70.2,29.99,WSW,241,0.0,1.0,95,0.00,,,0.00,meteohub,2013-09-04 04:42:00,
2013-09-03 23:47:00,71.4,70.0,29.99,WSW,241,0.0,0.0,95,0.00,,,0.00,meteohub,2013-09-04 04:47:00,
2013-09-03 23:52:00,71.4,70.0,29.99,WSW,241,0.0,0.0,95,0.00,,,0.00,meteohub,2013-09-04 04:52:00,
2013-09-03 23:57:00,71.2,69.8,29.99,WSW,241,0.0,0.0,95,0.00,,,0.00,meteohub,2013-09-04 04:57:00,